| time (UTC) | temp C | wind direction | speed KPH | gust KPH | rain 1hr cm | rain 24hr cm | rain mn cm | humidity % | barometer mb |
| 20260504045120 | 7 | 317 | 0.0 | 0.0 | 0.00 | 0.00 | 0.00 | 77 | 1013.6 |
| 20260504035120 | 7 | 317 | 0.0 | 0.0 | 0.00 | 0.00 | 0.00 | 78 | 1013.3 |
| 20260504032120 | 7 | 317 | 0.0 | 0.0 | 0.00 | 0.00 | 0.00 | 78 | 1013.1 |
| 20260504025121 | 6 | 314 | 0.0 | 0.0 | 0.00 | 0.00 | 0.00 | 78 | 1012.9 |
| 20260504022121 | 6 | 314 | 0.0 | 0.0 | 0.00 | 0.00 | 0.00 | 71 | 1012.7 |
| 20260504015120 | 7 | 314 | 0.0 | 0.0 | 0.00 | 0.00 | 0.00 | 67 | 1012.6 |
| 20260504012121 | 8 | 314 | 0.0 | 0.0 | 0.00 | 0.00 | 0.00 | 67 | 1012.1 |
| 20260504005120 | 10 | 314 | 0.0 | 0.0 | 0.00 | 0.00 | 0.00 | 58 | 1012.1 |
| 20260504002120 | 12 | 314 | 0.0 | 0.0 | 0.00 | 0.00 | 0.00 | 48 | 1011.9 |
| 20260503235120 | 15 | 314 | 0.0 | 0.0 | 0.00 | 0.00 | 0.00 | 37 | 1011.8 |
| 20260503232120 | 17 | 314 | 0.0 | 8.0 | 0.00 | 0.00 | 0.00 | 32 | 1011.9 |
| 20260503225121 | 17 | 313 | 0.0 | 9.7 | 0.00 | 0.00 | 0.00 | 29 | 1011.7 |
| 20260503222120 | 17 | 280 | 3.2 | 12.9 | 0.00 | 0.00 | 0.00 | 28 | 1011.4 |
| 20260503215120 | 17 | 267 | 0.0 | 14.5 | 0.00 | 0.00 | 0.00 | 24 | 1011.7 |
| 20260503212120 | 18 | 286 | 8.0 | 17.7 | 0.00 | 0.00 | 0.00 | 29 | 1011.9 |
| 20260503205120 | 17 | 13 | 0.0 | 20.9 | 0.00 | 0.00 | 0.00 | 25 | 1012.0 |
| 20260503202120 | 17 | 288 | 8.0 | 24.1 | 0.00 | 0.00 | 0.00 | 28 | 1012.5 |
| 20260503195120 | 17 | 17 | 6.4 | 17.7 | 0.00 | 0.00 | 0.00 | 28 | 1012.8 |
| 20260503192121 | 16 | 274 | 6.4 | 20.9 | 0.00 | 0.00 | 0.00 | 30 | 1013.2 |
| 20260503185120 | 16 | 181 | 3.2 | 22.5 | 0.00 | 0.00 | 0.00 | 34 | 1013.7 |
| 20260503175120 | 15 | 184 | 11.3 | 32.2 | 0.00 | 0.00 | 0.00 | 36 | 1014.2 |
| 20260503072120 | 6 | 349 | 0.0 | 0.0 | 0.00 | 0.00 | 0.00 | 65 | 1012.7 |
| 20260503055120 | 6 | 319 | 0.0 | 0.0 | 0.00 | 0.00 | 0.00 | 69 | 1012.3 |